Flag for Poland Weather past 2 weeks in Opole, Poland

Now
73 °F

Clear.


Feels Like: 76 °F
Forecast: 63 / 85 °F
Wind: 6 mph from South

Location: Wroclaw Ii

Current Time: Jul 6, 2015 at 12:03:57 AM

Latest Report: Jul 5, 2015 at 11:30 PM


Visibility: 10 mi

Pressure: 29.98 "Hg

Humidity: 69%

Dew point: 63 °F

Location of OpoleLocation

Historic Weather in Opole — Graph

°F

Opole temperature yesterday

Maximum temperature yesterday: 93 °F (at 12:00 PM)
Minimum temperature yesterday: 63 °F (at 5:00 AM)
Average temperature yesterday: 80 °F

Past Weeks' High & Low Weather Summary

 TemperatureHumidityPressure
High95 °F (Jul 4, 3:00 PM)100% (Jun 22, 5:30 AM)30.36 "Hg (Jun 22, 5:30 AM)
Low46 °F (Jun 22, 4:30 AM)21% (Jul 5, 6:00 PM)29.68 "Hg (Jun 23, 7:30 AM)
Average67 °F68%30.11 "Hg
* Reported Jun 20 11:00 PM — Jul 5 11:00 PM, Opole, Weather by CustomWeather, © 2015

Note: Actual official high and low records may vary slightly from our data, if they occured in-between our weather recording intervals... More about our weather records

Advertising

Opole weather history for previous 24 hours

 ConditionsComfort  
Time TempWeatherWind HumidityBarometerVisibility
11:00 PM
Sun, Jul 5
75 °FClear.5 mph65%29.98 "Hg10 mi
10:30 PM81 °FClear.5 mph51%29.98 "Hg10 mi
10:00 PM81 °FSunny.3 mph51%29.98 "Hg10 mi
9:30 PM81 °FSunny.3 mph51%29.98 "Hg10 mi
9:00 PM82 °FSunny.3 mph51%29.98 "Hg10 mi
8:30 PM86 °FSunny.2 mph43%29.98 "Hg10 mi
8:00 PM88 °FSunny.3 mph40%30.01 "Hg10 mi
7:30 PM91 °FSunny.3 mph34%30.01 "Hg10 mi
7:00 PM91 °FSunny.5 mph34%30.01 "Hg10 mi
6:30 PM93 °FSunny.5 mph26%30.04 "Hg10 mi
6:00 PM93 °FPassing clouds.3 mph21%30.04 "HgN/A
5:30 PM93 °FPassing clouds.5 mph24%30.04 "HgN/A
5:00 PM93 °FSunny.2 mph24%30.04 "Hg10 mi
4:30 PM93 °FSunny.3 mph26%30.04 "Hg10 mi
4:00 PM91 °FSunny.2 mph36%30.04 "Hg10 mi
3:30 PM91 °FSunny.2 mph41%30.07 "Hg10 mi
3:00 PM88 °FSunny.2 mph43%30.07 "Hg10 mi
2:30 PM86 °FSunny.1 mph52%30.07 "Hg10 mi
2:00 PM84 °FPassing clouds.2 mph51%30.09 "HgN/A
1:30 PM82 °FSprinkles. Passing clouds.7 mph55%30.09 "HgN/A
1:00 PM84 °FPassing clouds.16 mph48%30.12 "HgN/A
12:30 PM91 °FPassing clouds.3 mph28%30.09 "HgN/A
12:00 PM93 °FPassing clouds.3 mph28%30.09 "HgN/A
11:30 AM91 °FSunny.5 mph34%30.09 "Hg10 mi
11:00 AM90 °FPassing clouds.3 mph36%30.09 "HgN/A
10:30 AM88 °FPassing clouds.5 mph40%30.09 "HgN/A
10:00 AM88 °FSunny.2 mph40%30.09 "Hg10 mi
9:30 AM84 °FSunny.3 mph51%30.09 "Hg10 mi
9:00 AM82 °FPassing clouds.3 mph55%30.09 "HgN/A
8:30 AM77 °FSunny.1 mph65%30.09 "Hg10 mi
8:00 AM73 °FSunny.1 mph78%30.12 "Hg10 mi
7:30 AM72 °FSunny.3 mph78%30.12 "Hg10 mi
7:00 AM68 °FSunny.2 mph88%30.12 "Hg10 mi
6:30 AM66 °FSunny.3 mph88%30.09 "Hg10 mi
5:30 AM63 °FClear.1 mph94%30.09 "Hg10 mi
5:00 AM63 °FClear.1 mph94%30.09 "Hg10 mi
4:30 AM64 °FClear.1 mph94%30.09 "Hg10 mi
4:00 AM64 °FClear.No wind88%30.09 "Hg10 mi
3:30 AM64 °FClear.1 mph88%30.09 "Hg10 mi
3:00 AM66 °FClear.1 mph83%30.09 "Hg10 mi
2:30 AM64 °FClear.2 mph88%30.12 "Hg10 mi
2:00 AM66 °FClear.No wind83%30.12 "Hg10 mi
1:30 AM68 °FClear.1 mph78%30.12 "Hg10 mi
1:00 AM68 °FClear.1 mph83%30.12 "Hg10 mi
12:30 AM70 °FClear.1 mph73%30.12 "Hg10 mi
12:00 AM70 °FClear.1 mph73%30.12 "Hg10 mi
Weather by CustomWeather, © 2015

See weather overviewHow to use our weather pages